Regional Weather Roundup
Issued by NWS

Home | Current Version | Previous Version | Graphics & Text | Print | Product List | Glossary On
Versions: 1 2 3 4 5 6 7 8 9 10 11 12 13 14 15 16 17 18 19 20 21 22 23 24 25 26 27 28 29 30 31 32 33 34 35 36 37 38 39 40 41 42 43 44 45 46 47 48 49
000
ASUS45 KSLC 312310
RWRUT

UTAH REGIONAL WEATHER ROUNDUP
NATIONAL WEATHER SERVICE SALT LAKE CITY UT
500 PM MDT MON AUG 31 2015

UTZ001>011-023>025-010000-

NORTHERN UTAH

CITY           SKY/WX    TMP DP  RH WIND       PRES   REMARKS
BRIGHAM CITY     N/A     85  24  10 S8        30.00F
HILL AFB         N/A     83  41  22 SW6       30.03F
LOGAN          SUNNY     84  30  14 MISG      30.00F
OGDEN            N/A     84  37  18 SW9       30.00F
PROVO AIRPORT  MOSUNNY   88  45  22 VRB3      29.98F
SALT LAKE CITY   N/A     86  40  19 NW9       29.98F
VERNAL         CLOUDY    81  39  22 N16       30.08F
WENDOVER         N/A     84  27  12 SE8       29.98F
HEBER CITY     PTSUNNY   86  36  16 W10       30.07S
WEST JORDAN    MOSUNNY   82  45  26 NW7       30.01F

$$

UTZ012>022-026-027-010000-

SOUTHERN/CENTRAL UTAH

CITY           SKY/WX    TMP DP  RH WIND       PRES   REMARKS
BLANDING         N/A     79  47  32 S7        30.23S
BRYCE CANYON   PTSUNNY   76  42  29 S13       30.25F
CEDAR CITY       N/A     86  35  16 SW18G25   30.07F
DELTA            N/A     88  31  13 SW8       30.00F
HANKSVILLE       N/A     84  45  24 S6        30.05F
MILFORD          N/A     90  34  13 SW22G29   30.00F
MOAB/CYNLANDS  SUNNY     86  49  27 N5        30.02F
PRICE          TSTM      67  54  63 SE14      30.12R
ST GEORGE        N/A     99  48  18 W5G17     29.88F HX  95
KANAB            N/A     82  55  39 S14       30.12F

$$

REGIONAL REPORTS     COLORADO/ARIZONA

CITY           SKY/WX    TMP DP  RH WIND       PRES   REMARKS
CRAIG, CO      PTSUNNY   75  51  43 NE12      30.14F
GRAND JUNCTION MOSUNNY   81  53  37 SE5       30.06F
RIFLE          PTSUNNY   78  53  41 N3        30.13F
MONTROSE       PTSUNNY   79  49  34 N8        30.15F
CORTEZ         SUNNY     81  43  26 NW16      30.16R
PAGE, AZ         N/A     86  54  33 MISG      30.04F
GRAND CANYON     N/A     66  53  63 E3        30.25F
KINGMAN          N/A     96  43  16 SW15G25   29.94F HX  92
FLAGSTAFF      PTSUNNY   68  56  65 VRB3      30.28F THUNDER

$$

REGIONAL REPORTS    NEVADA/IDAHO/WYOMING

CITY           SKY/WX    TMP DP  RH WIND       PRES   REMARKS
LAS VEGAS, NV    N/A    102  41  12 S9        29.75F HX  97
ELY              N/A     83  23  11 CALM      30.08F
ELKO             N/A     87  27  11 SW14G20   29.99F
POCATELLO, ID  SUNNY     81  26  13 W12       30.03F
BURLEY           N/A     80  33  18 N5        29.99F
EVANSTON, WY   MOSUNNY   79  30  16 W15G26    30.18S
ROCK SPRINGS   PTSUNNY   75  38  26 SW21      30.14F
KEMMERER       MOSUNNY   77  23  13 W16G23    30.18S

$$


USA.gov is the U.S. government's official web portal to all federal, state and local government web resources and services.